Regional Weather Roundup
Issued by NWS

Home | Current Version | Previous Version | Graphics & Text | Print | Product List | Glossary On
Versions: 1 2 3 4 5 6 7 8 9 10 11 12 13 14 15 16 17 18 19 20 21 22 23 24 25 26 27 28 29 30 31 32 33 34 35 36 37 38 39 40 41 42 43 44 45 46 47 48 49 50
000
ASUS45 KTFX 280604
RWRMT
MONTANA HOURLY WEATHER ROUNDUP
NATIONAL WEATHER SERVICE GREAT FALLS MT
1204 AM MDT MON JUL 28 2014

NOTE: "FAIR" INDICATES FEW OR NO CLOUDS BELOW 12000 FEET WITH NO
SIGNIFICANT WEATHER AND/OR OBSTRUCTIONS TO VISIBILITY.

* THESE STATIONS ARE NOT UNDER NWS QUALITY CONTROL. THEY DO NOT
   REPORT WEATHER SUCH AS PRECIPITATION OR FOG.

MTZ001>007-043-280700-
WEST OF THE DIVIDE
CITY           SKY/WX    TMP DP  RH WIND       PRES   REMARKS
KALISPELL      MOCLDY    57  50  78 CALM      30.16S
MISSOULA       PTCLDY    72  41  33 CALM      30.17R
BUTTE          CLEAR     61  32  34 SE6       30.32R
MULLAN PASS    MOCLDY    68  34  28 VRB3      30.33F
* ESSEX        N/A       59  45  60 SE4G10     N/A
* LINCOLN      N/A       62  41  46 NE4        N/A
* LOOKOUT PASS N/A       65  42  43 S1         N/A
* POLSON       N/A       68  39  35 NE1        N/A
* RONAN APT    PTCLDY    63  52  68 N/A        N/A
* SEELEY LAKE  N/A       54  41  62 E2         N/A
* THOMP F APT  MOCLDY    71  27  19 N6         N/A
* YAAK HILL    N/A       65  45  49 N/A        N/A
$$

MTZ008-052>055-280700-
SOUTHWEST MONTANA
CITY           SKY/WX    TMP DP  RH WIND       PRES   REMARKS
BOZEMAN        CLEAR     63  41  45 SW8       30.24R
DILLON         CLEAR     61  37  41 CALM      30.26R
W YELLOWSTONE  CLEAR     54  36  51 CALM      30.40R
* THREE FORKS  CLEAR     57  46  67 N/A        N/A
* BOULDER HILL N/A       63  31  30 W2         N/A
* MONIDA PASS  N/A       62  31  31 W6         N/A
* RAYNOLDS PAS N/A       57  37  47 SE2        N/A
* WHITEHALL    N/A       69  35  29 NW6G11     N/A
* WISE RIVER   N/A       62  29  29 S4G9       N/A
$$

MTZ009>010-012-014-046-048-049-054-280700-
EAST SLOPES AND CENTRAL MONTANA
CITY           SKY/WX    TMP DP  RH WIND       PRES   REMARKS
CUT BANK       CLEAR     66  41  40 SE9       30.25R
GREAT FALLS    CLEAR     72  39  30 E13       30.20F
HELENA         CLEAR     73  36  26 W9        30.21R
* CONRAD       PTCLDY    59  48  67 N/A        N/A
* DEARBORN     N/A       76  36  23 SE2        N/A
* EAST GLACIER N/A       54  43  67 NW8        N/A
* MONARCH      N/A       56  36  47 SE4        N/A
* ROGERS PASS  N/A       61  36  39 NW2        N/A
* SAINT MARY   N/A       48  42  80 SE3        N/A
* SWEET GRASS  N/A       68  41  38 S14        N/A
$$

MTZ011-013-016-021-035-040-045-047-050-051-280700-
NORTH CENTRAL MONTANA
CITY           SKY/WX    TMP DP  RH WIND       PRES   REMARKS
HAVRE          CLEAR     66  45  47 E12       30.21S
LEWISTOWN      CLEAR     66  39  37 E12       30.29S
* CHESTER      N/A       71  41  34 SE11G19    N/A
* DENTON       N/A       63  35  35 SE1        N/A
* JUDITH GAP   N/A       68  39  35 E14G21     N/A
* LOMA         N/A       71  43  37 NE13       N/A
$$

MTZ017>020-022>027-061-062-280700-
NORTHEAST MONTANA
CITY           SKY/WX    TMP DP  RH WIND       PRES   REMARKS
GLASGOW        CLEAR     63  54  73 E13       30.25R
GLENDIVE       CLEAR     61  52  72 E6        30.31R
JORDAN         CLEAR     61  43  52 CALM      30.26S
SIDNEY         CLEAR     59  52  78 CALM      30.31S
WOLF POINT     CLEAR     57  50  78 NE6       30.28R
* BEAVER HILL  N/A       58  51  78 SE14       N/A
* CIRCLE       N/A       63  53  70 N/A        N/A
* LINDSAY DVD  N/A       56  51  83 E4         N/A
* NAVAJO       N/A       56  52  87 S5         N/A
$$

MTZ028>042-056>058-280700-
SOUTHCENTRAL AND SOUTHEAST MONTANA
CITY           SKY/WX    TMP DP  RH WIND       PRES   REMARKS
BAKER          CLEAR     55  52  90 SE7       30.33R
BILLINGS       CLEAR     73  39  29 E10       30.26S
LIVINGSTON     CLEAR     70  39  32 E14       30.27R
MILES CITY     CLEAR     70  50  49 SE9       30.27R
* LAUREL APT   CLEAR     68  39  35 N5         N/A
* ROUNDUP APT  CLEAR     70  37  30 NE7        N/A
* ALZADA       N/A       61  53  75 E9         N/A
* HYSHAM       N/A       67  41  39 E8         N/A
* LAME DEER    N/A       65  42  43 E7         N/A
* REED POINT   N/A       62  41  46 NW1        N/A
* ROSCOE HILL  N/A       64  36  35 SW2        N/A
$$

REGIONAL REPORTS...DAKOTAS
CITY           SKY/WX    TMP DP  RH WIND       PRES   REMARKS
WILLISTON      CLEAR     55  52  90 CALM      30.30R
DICKINSON      CLEAR     52  48  86 SE5       30.32R
CROSBY         N/A       55  55 100 CALM      30.31S
TIOGA          CLEAR     48  48 100 CALM      30.34R
WATFORD CITY   CLEAR     54  52  93 CALM      30.29S
BISMARCK       CLEAR     55  52  90 CALM      30.31R
GRAND FORKS    CLOUDY    61  55  81 NW7        N/A
FARGO          CLOUDY    59  55  87 W6        30.21S
BUFFALO SD     CLEAR     57  52  83 SE6       30.28R
RAPID CITY     CLEAR     57  52  83 E5        30.35R
$$

REGIONAL REPORTS...WYOMING/IDAHO/WASHINGTON
CITY           SKY/WX    TMP DP  RH WIND       PRES   REMARKS
GILLETTE       PTCLDY    57  43  60 CALM      30.35R
SHERIDAN       CLEAR     63  46  54 CALM      30.30S
YELLOWSTONE LA CLEAR     46  36  68 CALM      30.51S
SALMON         CLEAR     64  34  33 SE6       30.14S
MULLAN PASS    MOCLDY    68  34  28 VRB3      30.33S
SAND POINT     PTCLDY    57  50  78 CALM      30.11S
SPOKANE        MOCLDY    79  37  22 S3        30.10R

$$




USA.gov is the U.S. government's official web portal to all federal, state and local government web resources and services.